Weather History for Petersburg, WV

Change the Weather History Date:

Tuesday, April 2, 2013

  Actual Average (KEKN) Record (KEKN)
Temperature  
Mean Temperature 40 °F 46 °F  
Max Temperature 47 °F 58 °F 89 °F (2010)
Min Temperature 33 °F 33 °F 14 °F (1907)
Degree Days  
Heating Degree Days 24 20  
Month to date heating degree days 40  
Since 1 July heating degree days 5141  
Cooling Degree Days 0 0  
Month to date cooling degree days 0  
Year to date cooling degree days 0  
Moisture  
Dew Point 13 °F    
Average Humidity 34    
Maximum Humidity 54    
Minimum Humidity 22    
Precipitation  
Precipitation 0.00 in 0.13 in 0.63 in (1964)
Month to date precipitation 0.26  
Year to date precipitation 10.55  
Snow  
Snow 0.00 in - - ()
Month to date snowfall  
Since 1 September snowfall  
Snow Depth -    
Sea Level Pressure  
Sea Level Pressure 30.11 in    
Wind  
Wind Speed 8 mph (WNW)    
Max Wind Speed 25 mph    
Max Gust Speed 31 mph    
Visibility 10 miles    
Events      
T = Trace of Precipitation, MM = Missing Value Source: NWS Daily Summary

Daily Weather History Graph

Daily Weather History Graph

Search for Another Location

Airport:

Trip Planner

Search our weather history database for the weather conditions in past years. The results will help you decide how hot, cold, wet, or windy it might be!

Date:

Astronomy

Apr. 02, 2013 Rise Set
Actual Time 6:59 AM EDT 7:41 PM EDT
Civil Twilight 6:32 AM EDT 8:08 PM EDT
Nautical Twilight 6:00 AM EDT 8:40 PM EDT
Astronomical Twilight 5:27 AM EDT 9:13 PM EDT
Moon 1:42 AM EDT (4/2) 11:50 AM EDT (4/2)
Length of Visible Light 13h 36m
Length of Day
12h 42m
Waning Gibbous, 56% of the Moon is Illuminated
Apr 2
Waning Gibbous
Apr 3
Last Quarter
Apr 10
New
Apr 18
First Quarter
Apr 25
Full

Hourly Weather History & Observations

Time (EDT) Temp. Windchill Dew Point Humidity Pressure Visibility Wind Dir Wind Speed Gust Speed Precip Events Conditions
12:15 AM 39.9 °F 35.1 °F 15.4 °F 37% 30.02 in 10.0 mi North 6.9 mph - N/A   Clear
12:35 AM 39.7 °F 37.6 °F 14.9 °F 36% 30.02 in 10.0 mi NNW 3.5 mph - N/A   Clear
12:55 AM 40.3 °F 34.9 °F 14.4 °F 35% 30.02 in 10.0 mi NNW 8.1 mph - N/A   Clear
1:15 AM 40.5 °F 34.6 °F 13.8 °F 34% 30.03 in 10.0 mi West 9.2 mph 17.3 mph N/A   Clear
1:35 AM 39.4 °F 33.2 °F 14.2 °F 36% 30.02 in 10.0 mi WNW 9.2 mph - N/A   Clear
1:55 AM 39.9 °F 34.5 °F 14.4 °F 35% 30.02 in 10.0 mi WNW 8.1 mph 20.7 mph N/A   Scattered Clouds
2:15 AM 38.5 °F 31.6 °F 16.2 °F 40% 30.02 in 10.0 mi West 10.4 mph - N/A   Scattered Clouds
2:35 AM 38.7 °F - 16.0 °F 40% 30.02 in 10.0 mi Calm Calm - N/A   Mostly Cloudy
2:55 AM 38.3 °F 32.5 °F 16.9 °F 42% 30.02 in 10.0 mi NE 8.1 mph - N/A   Overcast
3:15 AM 38.7 °F 35.2 °F 16.3 °F 40% 30.02 in 10.0 mi North 4.6 mph - N/A   Overcast
3:35 AM 37.4 °F 34.9 °F 16.7 °F 43% 30.03 in 10.0 mi North 3.5 mph - N/A   Mostly Cloudy
3:55 AM 37.8 °F 33.3 °F 16.0 °F 41% 30.04 in 10.0 mi NW 5.8 mph - N/A   Mostly Cloudy
4:15 AM 37.8 °F 35.3 °F 14.0 °F 38% 30.03 in 10.0 mi NNW 3.5 mph 11.5 mph N/A   Scattered Clouds
4:35 AM 36.9 °F 34.3 °F 13.1 °F 38% 30.04 in 10.0 mi NW 3.5 mph - N/A   Clear
4:55 AM 36.5 °F 33.9 °F 15.1 °F 42% 30.05 in 10.0 mi WNW 3.5 mph - N/A   Clear
5:15 AM 36.1 °F 31.4 °F 13.5 °F 39% 30.05 in 10.0 mi NW 5.8 mph - N/A   Clear
5:35 AM 35.8 °F 30.9 °F 14.4 °F 42% 30.06 in 10.0 mi NE 5.8 mph - N/A   Clear
5:55 AM 35.1 °F 29.3 °F 14.7 °F 43% 30.07 in 10.0 mi NNW 6.9 mph - N/A   Scattered Clouds
6:15 AM 34.5 °F 28.6 °F 15.3 °F 45% 30.07 in 10.0 mi NNW 6.9 mph - N/A   Mostly Cloudy
6:35 AM 35.1 °F 29.3 °F 14.7 °F 43% 30.08 in 10.0 mi NNW 6.9 mph - N/A   Mostly Cloudy
6:55 AM 34.9 °F 28.3 °F 15.4 °F 45% 30.09 in 10.0 mi WNW 8.1 mph - N/A   Mostly Cloudy
7:15 AM 34.9 °F 29.9 °F 15.6 °F 45% 30.10 in 10.0 mi WNW 5.8 mph - N/A   Overcast
7:35 AM 36.0 °F 29.6 °F 13.6 °F 40% 30.12 in 10.0 mi West 8.1 mph 18.4 mph N/A   Overcast
7:55 AM 36.0 °F 30.3 °F 13.1 °F 39% 30.13 in 10.0 mi NW 6.9 mph - N/A   Overcast
8:15 AM 36.7 °F 28.4 °F 13.3 °F 38% 30.13 in 10.0 mi WNW 12.7 mph 18.4 mph N/A   Mostly Cloudy
8:35 AM 37.4 °F 32.1 °F 13.3 °F 37% 30.14 in 10.0 mi WNW 6.9 mph - N/A   Scattered Clouds
8:55 AM 37.4 °F 30.8 °F 11.3 °F 34% 30.14 in 10.0 mi West 9.2 mph 18.4 mph N/A   Clear
9:15 AM 37.9 °F 32.1 °F 12.4 °F 35% 30.14 in 10.0 mi WNW 8.1 mph - N/A   Clear
9:35 AM 38.5 °F 32.7 °F 12.2 °F 34% 30.14 in 10.0 mi West 8.1 mph 16.1 mph N/A   Clear
9:55 AM 39.2 °F 31.2 °F 11.3 °F 32% 30.13 in 10.0 mi West 13.8 mph 18.4 mph N/A   Clear
10:15 AM 40.1 °F 33.2 °F 10.8 °F 30% 30.13 in 10.0 mi West 11.5 mph - N/A   Clear
10:35 AM 40.8 °F 35.0 °F 9.3 °F 27% 30.13 in 10.0 mi NNW 9.2 mph 26.5 mph N/A   Clear
10:55 AM 41.4 °F 33.6 °F 7.9 °F 25% 30.13 in 10.0 mi NW 15.0 mph 21.9 mph N/A   Clear
11:15 AM 41.7 °F 36.1 °F 6.8 °F 24% 30.13 in 10.0 mi NNW 9.2 mph 21.9 mph N/A   Clear
11:35 AM 43.5 °F 37.1 °F 11.5 °F 27% 30.14 in 10.0 mi West 12.7 mph 18.4 mph N/A   Clear
11:55 AM 43.0 °F 35.4 °F 9.9 °F 26% 30.14 in 10.0 mi NW 16.1 mph 23.0 mph N/A   Clear
12:15 PM 43.2 °F 34.7 °F 11.1 °F 27% 30.14 in 10.0 mi WNW 19.6 mph 24.2 mph N/A   Clear
12:35 PM 43.0 °F 34.8 °F 10.9 °F 27% 30.14 in 10.0 mi WNW 18.4 mph 27.6 mph N/A   Clear
12:55 PM 43.7 °F 35.0 °F 11.5 °F 27% 30.13 in 10.0 mi WNW 21.9 mph 27.6 mph N/A   Clear
1:15 PM 43.9 °F 36.8 °F 10.6 °F 26% 30.13 in 10.0 mi NNW 15.0 mph 25.3 mph N/A   Clear
1:35 PM 44.8 °F 36.9 °F 12.6 °F 27% 30.13 in 10.0 mi NW 19.6 mph 27.6 mph N/A   Clear
1:55 PM 44.1 °F 36.8 °F 11.3 °F 26% 30.12 in 10.0 mi NW 16.1 mph 24.2 mph N/A   Clear
2:15 PM 45.0 °F 38.9 °F 12.7 °F 27% 30.12 in 10.0 mi WSW 12.7 mph 23.0 mph N/A   Clear
2:35 PM 45.0 °F 38.2 °F 12.0 °F 26% 30.12 in 10.0 mi West 15.0 mph 21.9 mph N/A   Clear
2:55 PM 45.0 °F 37.1 °F 10.9 °F 25% 30.10 in 10.0 mi WNW 19.6 mph 26.5 mph N/A   Clear
3:15 PM 45.7 °F 36.9 °F 11.8 °F 25% 30.10 in 10.0 mi West 25.3 mph 31.1 mph N/A   Clear
3:35 PM 45.5 °F 39.9 °F 10.6 °F 24% 30.10 in 10.0 mi West 11.5 mph 18.4 mph N/A   Clear
3:55 PM 45.9 °F 40.4 °F 10.9 °F 24% 30.09 in 10.0 mi West 11.5 mph 23.0 mph N/A   Clear
4:15 PM 46.8 °F - 11.7 °F 24% 30.09 in 10.0 mi West 11.5 mph - N/A   Clear
4:35 PM 46.8 °F - 11.5 °F 24% 30.09 in 10.0 mi West 15.0 mph 21.9 mph N/A   Clear
4:55 PM 46.8 °F - 10.4 °F 23% 30.09 in 10.0 mi West 13.8 mph 18.4 mph N/A   Clear
5:15 PM 47.3 °F - 11.1 °F 23% 30.09 in 10.0 mi West 16.1 mph 20.7 mph N/A   Clear
5:35 PM 46.8 °F - 10.4 °F 23% 30.10 in 10.0 mi West 12.7 mph 21.9 mph N/A   Clear
5:55 PM 46.2 °F 39.5 °F 9.5 °F 23% 30.11 in 10.0 mi West 16.1 mph 28.8 mph N/A   Clear
6:15 PM 45.5 °F 39.9 °F 8.1 °F 22% 30.11 in 10.0 mi WNW 11.5 mph - N/A   Clear
6:35 PM 45.5 °F 39.9 °F 10.4 °F 24% 30.12 in 10.0 mi WNW 11.5 mph 24.2 mph N/A   Clear
6:55 PM 44.1 °F 36.5 °F 9.1 °F 24% 30.12 in 10.0 mi WNW 17.3 mph - N/A   Clear
7:15 PM 42.6 °F 38.4 °F 10.4 °F 27% 30.13 in 10.0 mi West 6.9 mph - N/A   Clear
7:35 PM 40.1 °F 36.1 °F 11.3 °F 31% 30.14 in 10.0 mi WNW 5.8 mph - N/A   Clear
7:55 PM 41.0 °F 33.1 °F 8.8 °F 27% 30.14 in 10.0 mi WNW 15.0 mph 19.6 mph N/A   Clear
8:15 PM 41.0 °F 35.2 °F 8.1 °F 26% 30.14 in 10.0 mi West 9.2 mph 23.0 mph N/A   Clear
8:35 PM 39.2 °F 33.0 °F 11.5 °F 32% 30.15 in 10.0 mi WNW 9.2 mph - N/A   Clear
8:55 PM 38.8 °F - 11.7 °F 33% 30.15 in 10.0 mi Calm Calm - N/A   Clear
9:15 PM 39.4 °F 37.2 °F 13.6 °F 35% 30.16 in 10.0 mi North 3.5 mph - N/A   Clear
9:35 PM 37.0 °F - 15.6 °F 42% 30.17 in 10.0 mi Calm Calm - N/A   Clear
9:55 PM 36.7 °F 34.1 °F 16.0 °F 43% 30.17 in 10.0 mi WNW 3.5 mph - N/A   Clear
10:15 PM 37.4 °F - 17.1 °F 44% 30.18 in 10.0 mi Calm Calm - N/A   Clear
10:35 PM 37.6 °F 35.1 °F 16.2 °F 42% 30.18 in 10.0 mi NNW 3.5 mph - N/A   Clear
10:55 PM 37.0 °F 34.5 °F 16.3 °F 43% 30.18 in 10.0 mi North 3.5 mph - N/A   Clear
11:15 PM 38.7 °F 36.3 °F 13.1 °F 35% 30.18 in 10.0 mi NNW 3.5 mph - N/A   Clear
11:35 PM 34.7 °F - 17.8 °F 50% 30.19 in 10.0 mi Calm Calm - N/A   Scattered Clouds
11:55 PM 33.4 °F - 18.5 °F 54% 30.19 in 10.0 mi Calm Calm - N/A   Scattered Clouds